TimePDT,TemperatureF,Dew PointF,Humidity,Sea Level PressureIn,VisibilityMPH,Wind Direction,Wind SpeedMPH,Gust SpeedMPH,PrecipitationIn,Events,Conditions,WindDirDegrees,DateUTC
12:53 AM,43.0,41.0,93,30.28,4.0,Calm,Calm,-,N/A,,Clear,0,2013-03-11 07:53:00
1:46 AM,42.8,39.2,87,30.27,2.0,Calm,Calm,-,N/A,,Clear,0,2013-03-11 08:46:00
1:53 AM,41.0,39.0,93,30.28,3.0,Calm,Calm,-,N/A,,Clear,0,2013-03-11 08:53:00
2:02 AM,42.8,39.2,87,30.27,1.8,Calm,Calm,-,N/A,,Clear,0,2013-03-11 09:02:00
2:12 AM,42.8,39.2,87,30.27,0.5,Calm,Calm,-,N/A,Fog,Fog,0,2013-03-11 09:12:00
2:28 AM,41.0,39.2,93,30.27,0.2,Calm,Calm,-,N/A,Fog,Fog,0,2013-03-11 09:28:00
3:53 AM,41.0,39.9,96,30.25,0.2,Calm,Calm,-,N/A,Fog,Fog,0,2013-03-11 10:53:00
4:53 AM,39.9,37.9,93,30.25,0.2,Calm,Calm,-,N/A,Fog,Fog,0,2013-03-11 11:53:00
5:53 AM,37.9,37.0,97,30.25,0.2,Calm,Calm,-,N/A,Fog,Fog,0,2013-03-11 12:53:00
6:17 AM,37.4,37.4,100,30.24,0.2,Calm,Calm,-,N/A,Fog,Fog,0,2013-03-11 13:17:00
6:53 AM,37.0,36.0,96,30.26,0.2,Calm,Calm,-,N/A,Fog,Fog,0,2013-03-11 13:53:00
7:53 AM,39.9,39.0,97,30.27,0.2,Calm,Calm,-,N/A,Fog,Fog,0,2013-03-11 14:53:00
8:22 AM,42.8,41.0,93,30.27,0.5,Calm,Calm,-,N/A,Fog,Fog,0,2013-03-11 15:22:00
8:31 AM,42.8,42.8,100,30.27,2.0,Calm,Calm,-,N/A,,Mostly Cloudy,0,2013-03-11 15:31:00
8:39 AM,42.8,42.8,100,30.28,2.0,Calm,Calm,-,N/A,,Scattered Clouds,0,2013-03-11 15:39:00
8:49 AM,44.6,44.6,100,30.28,1.8,Calm,Calm,-,N/A,,Partly Cloudy,0,2013-03-11 15:49:00
8:53 AM,45.0,45.0,100,30.29,1.8,Calm,Calm,-,N/A,,Clear,0,2013-03-11 15:53:00
9:03 AM,44.6,44.6,100,30.28,2.5,Calm,Calm,-,N/A,,Clear,0,2013-03-11 16:03:00
9:14 AM,46.4,44.6,93,30.28,3.0,SE,3.5,-,N/A,,Clear,140,2013-03-11 16:14:00
9:53 AM,50.0,46.9,89,30.28,4.0,SSE,3.5,-,N/A,,Clear,160,2013-03-11 16:53:00
10:53 AM,55.9,48.9,77,30.27,7.0,South,4.6,-,N/A,,Clear,190,2013-03-11 17:53:00
11:53 AM,61.0,46.9,60,30.25,9.0,Calm,Calm,-,N/A,,Clear,0,2013-03-11 18:53:00
12:53 PM,63.0,45.0,52,30.23,10.0,Calm,Calm,-,N/A,,Clear,0,2013-03-11 19:53:00
1:53 PM,66.9,46.9,49,30.19,9.0,Variable,4.6,-,N/A,,Clear,0,2013-03-11 20:53:00
2:53 PM,68.0,46.9,47,30.17,9.0,Variable,4.6,-,N/A,,Clear,0,2013-03-11 21:53:00
3:53 PM,70.0,48.0,46,30.15,9.0,SSE,3.5,-,N/A,,Clear,160,2013-03-11 22:53:00
4:53 PM,69.1,48.0,47,30.13,9.0,SE,3.5,-,N/A,,Clear,140,2013-03-11 23:53:00
5:53 PM,68.0,50.0,52,30.11,8.0,South,4.6,-,N/A,,Clear,170,2013-03-12 00:53:00
6:53 PM,63.0,50.0,63,30.11,8.0,South,3.5,-,N/A,,Clear,190,2013-03-12 01:53:00
7:53 PM,57.0,50.0,77,30.12,8.0,SSW,4.6,-,N/A,,Clear,200,2013-03-12 02:53:00
8:53 PM,55.0,50.0,83,30.13,6.0,Calm,Calm,-,N/A,,Haze,0,2013-03-12 03:53:00
9:53 PM,53.1,48.9,86,30.15,6.0,Calm,Calm,-,N/A,,Clear,0,2013-03-12 04:53:00
10:53 PM,48.9,45.0,86,30.16,5.0,Calm,Calm,-,N/A,,Clear,0,2013-03-12 05:53:00
11:53 PM,51.1,46.9,86,30.15,4.0,Calm,Calm,-,N/A,,Clear,0,2013-03-12 06:53:00